Precipitable_Water
0.37 0.37 0.36 0.35 0.37 0.37 0.34 0.33 0.32 0.31 0.30 0.29 0.30 0.30 0.31 0.32 0.34 0.34 0.35 0.37 0.37 0.38 0.40 0.40 0.40 0.42 0.39 0.40 0.40 0.39 0.37 0.36 0.29 0.31 0.39 0.41 0.42 0.41 0.41 0.43 0.45 0.50 0.58
0.35 0.35 0.36 0.36 0.35 0.33 0.32 0.31 0.32 0.29 0.30 0.30 0.30 0.31 0.32 0.34 0.36 0.37 0.38 0.40 0.41 0.41 0.42 0.42 0.42 0.43 0.41 0.43 0.42 0.39 0.37 0.39 0.36 0.29 0.37 0.39 0.41 0.44 0.42 0.42 0.42 0.48 0.54
0.36 0.35 0.35 0.34 0.32 0.31 0.31 0.30 0.30 0.30 0.30 0.31 0.32 0.33 0.35 0.37 0.40 0.42 0.43 0.44 0.44 0.42 0.42 0.42 0.42 0.43 0.43 0.45 0.43 0.40 0.40 0.42 0.41 0.37 0.36 0.42 0.43 0.47 0.48 0.48 0.51 0.49 0.53
0.36 0.35 0.33 0.33 0.31 0.29 0.29 0.29 0.29 0.30 0.31 0.32 0.35 0.37 0.40 0.42 0.45 0.46 0.47 0.47 0.49 0.50 0.51 0.52 0.52 0.51 0.47 0.46 0.43 0.42 0.42 0.43 0.43 0.39 0.39 0.42 0.44 0.45 0.49 0.45 0.45 0.51 0.46
0.36 0.34 0.32 0.30 0.29 0.30 0.28 0.28 0.29 0.31 0.34 0.37 0.39 0.42 0.45 0.47 0.50 0.52 0.54 0.54 0.54 0.55 0.56 0.56 0.56 0.56 0.56 0.54 0.46 0.43 0.46 0.45 0.41 0.38 0.36 0.39 0.39 0.43 0.43 0.49 0.49 0.50 0.48
0.34 0.31 0.29 0.29 0.29 0.28 0.27 0.27 0.30 0.34 0.37 0.41 0.44 0.47 0.49 0.53 0.57 0.58 0.59 0.59 0.61 0.60 0.58 0.59 0.60 0.61 0.59 0.57 0.55 0.57 0.60 0.50 0.47 0.42 0.40 0.39 0.41 0.44 0.53 0.54 0.53 0.49 0.43
0.30 0.28 0.29 0.29 0.27 0.26 0.27 0.29 0.32 0.36 0.42 0.46 0.49 0.52 0.53 0.57 0.59 0.60 0.63 0.63 0.61 0.62 0.62 0.61 0.60 0.61 0.59 0.56 0.55 0.52 0.51 0.53 0.53 0.53 0.49 0.49 0.48 0.49 0.55 0.58 0.59 0.54 0.49
0.28 0.28 0.29 0.27 0.26 0.27 0.28 0.31 0.35 0.41 0.46 0.49 0.52 0.55 0.56 0.57 0.60 0.61 0.62 0.63 0.62 0.62 0.62 0.62 0.60 0.58 0.57 0.55 0.53 0.48 0.45 0.46 0.47 0.49 0.51 0.52 0.54 0.58 0.59 0.61 0.62 0.60 0.68
0.27 0.28 0.28 0.27 0.27 0.27 0.30 0.34 0.40 0.45 0.50 0.53 0.55 0.56 0.56 0.56 0.58 0.60 0.60 0.60 0.60 0.61 0.63 0.63 0.60 0.57 0.56 0.57 0.54 0.46 0.45 0.44 0.49 0.50 0.53 0.52 0.57 0.62 0.63 0.65 0.58 0.58 0.58
0.28 0.29 0.29 0.28 0.28 0.30 0.35 0.39 0.44 0.50 0.54 0.56 0.55 0.57 0.57 0.55 0.58 0.60 0.62 0.62 0.59 0.60 0.60 0.59 0.60 0.58 0.56 0.54 0.49 0.46 0.43 0.42 0.45 0.51 0.55 0.59 0.60 0.62 0.66 0.68 0.64 0.59 0.58
0.31 0.29 0.28 0.30 0.31 0.35 0.38 0.43 0.49 0.53 0.55 0.55 0.54 0.55 0.56 0.58 0.59 0.59 0.63 0.63 0.62 0.58 0.56 0.56 0.58 0.56 0.54 0.51 0.52 0.49 0.43 0.48 0.51 0.56 0.54 0.59 0.60 0.64 0.70 0.69 0.68 0.67 0.58
0.31 0.29 0.29 0.31 0.33 0.38 0.41 0.47 0.53 0.54 0.53 0.52 0.52 0.53 0.56 0.58 0.57 0.60 0.63 0.63 0.64 0.60 0.59 0.58 0.56 0.52 0.48 0.49 0.48 0.50 0.54 0.55 0.56 0.53 0.52 0.54 0.57 0.60 0.63 0.70 0.71 0.73 0.68
0.30 0.29 0.30 0.32 0.36 0.41 0.45 0.51 0.52 0.53 0.51 0.50 0.50 0.51 0.52 0.55 0.56 0.59 0.60 0.61 0.58 0.56 0.56 0.54 0.50 0.45 0.47 0.48 0.52 0.57 0.59 0.56 0.52 0.50 0.50 0.53 0.58 0.62 0.66 0.67 0.71 0.70 0.66
0.30 0.30 0.30 0.32 0.36 0.43 0.51 0.54 0.52 0.51 0.50 0.50 0.50 0.49 0.52 0.52 0.54 0.56 0.57 0.57 0.56 0.57 0.52 0.49 0.47 0.48 0.48 0.49 0.52 0.54 0.58 0.59 0.54 0.49 0.52 0.54 0.57 0.63 0.63 0.65 0.65 0.66 0.61
0.30 0.30 0.31 0.33 0.38 0.47 0.52 0.53 0.52 0.54 0.55 0.52 0.52 0.52 0.49 0.48 0.53 0.56 0.56 0.56 0.55 0.53 0.53 0.47 0.46 0.43 0.44 0.45 0.50 0.51 0.54 0.58 0.54 0.55 0.54 0.52 0.57 0.58 0.58 0.62 0.62 0.59 0.56
0.28 0.29 0.31 0.35 0.43 0.49 0.50 0.51 0.56 0.57 0.57 0.57 0.57 0.56 0.55 0.56 0.55 0.55 0.55 0.56 0.56 0.52 0.46 0.41 0.40 0.42 0.40 0.43 0.46 0.48 0.53 0.54 0.55 0.54 0.52 0.52 0.53 0.52 0.52 0.54 0.53 0.50 0.50
0.29 0.30 0.35 0.40 0.47 0.49 0.49 0.49 0.47 0.53 0.56 0.56 0.56 0.56 0.53 0.52 0.52 0.53 0.53 0.53 0.54 0.55 0.46 0.42 0.37 0.40 0.40 0.42 0.44 0.46 0.48 0.55 0.59 0.56 0.53 0.51 0.50 0.49 0.47 0.47 0.46 0.45 0.43
0.30 0.34 0.38 0.46 0.49 0.50 0.50 0.50 0.50 0.48 0.47 0.48 0.53 0.55 0.53 0.50 0.48 0.49 0.51 0.50 0.48 0.49 0.49 0.47 0.42 0.39 0.42 0.42 0.41 0.42 0.45 0.48 0.51 0.53 0.52 0.49 0.48 0.46 0.42 0.41 0.42 0.43 0.40
0.32 0.35 0.43 0.49 0.50 0.51 0.51 0.51 0.50 0.49 0.48 0.48 0.49 0.50 0.49 0.43 0.43 0.45 0.49 0.46 0.45 0.45 0.46 0.47 0.48 0.46 0.43 0.44 0.44 0.44 0.46 0.45 0.46 0.47 0.47 0.47 0.46 0.43 0.42 0.41 0.44 0.43 0.42
0.34 0.38 0.47 0.49 0.49 0.49 0.50 0.49 0.49 0.48 0.48 0.47 0.46 0.42 0.44 0.39 0.39 0.43 0.46 0.46 0.45 0.45 0.46 0.46 0.48 0.49 0.46 0.45 0.46 0.45 0.44 0.45 0.43 0.43 0.44 0.44 0.43 0.44 0.44 0.44 0.44 0.44 0.44
0.34 0.41 0.48 0.49 0.48 0.49 0.49 0.49 0.49 0.48 0.47 0.45 0.43 0.44 0.43 0.41 0.43 0.45 0.45 0.46 0.46 0.46 0.47 0.47 0.48 0.49 0.48 0.46 0.45 0.45 0.45 0.45 0.44 0.43 0.43 0.42 0.40 0.42 0.44 0.49 0.48 0.50 0.50
0.35 0.42 0.47 0.47 0.48 0.49 0.49 0.50 0.49 0.48 0.47 0.40 0.41 0.42 0.43 0.43 0.46 0.46 0.47 0.47 0.48 0.49 0.50 0.49 0.49 0.49 0.50 0.47 0.46 0.44 0.44 0.44 0.45 0.44 0.40 0.39 0.40 0.43 0.46 0.48 0.50 0.52 0.52
0.35 0.43 0.46 0.47 0.48 0.49 0.49 0.49 0.49 0.48 0.46 0.40 0.41 0.41 0.42 0.45 0.47 0.47 0.48 0.48 0.49 0.50 0.52 0.52 0.51 0.51 0.51 0.50 0.49 0.47 0.44 0.43 0.44 0.45 0.42 0.41 0.41 0.41 0.46 0.50 0.52 0.51 0.52
0.36 0.44 0.46 0.47 0.47 0.48 0.48 0.48 0.49 0.49 0.45 0.43 0.43 0.43 0.45 0.47 0.48 0.48 0.50 0.50 0.51 0.52 0.54 0.54 0.54 0.53 0.52 0.50 0.49 0.47 0.46 0.46 0.47 0.46 0.47 0.44 0.42 0.42 0.44 0.46 0.55 0.55 0.55
0.36 0.43 0.46 0.46 0.46 0.47 0.47 0.48 0.48 0.48 0.45 0.44 0.44 0.46 0.47 0.48 0.48 0.50 0.51 0.52 0.53 0.54 0.56 0.57 0.58 0.59 0.60 0.56 0.53 0.48 0.46 0.47 0.48 0.50 0.50 0.49 0.45 0.43 0.47 0.49 0.53 0.55 0.55
0.36 0.43 0.47 0.47 0.47 0.47 0.47 0.47 0.47 0.47 0.44 0.44 0.45 0.46 0.47 0.46 0.49 0.52 0.53 0.53 0.55 0.56 0.58 0.61 0.63 0.64 0.66 0.68 0.66 0.62 0.57 0.53 0.54 0.57 0.58 0.56 0.53 0.53 0.58 0.60 0.60 0.62 0.62
Wind_Speed
40 42 45 46 49 51 53 54 55 57 58 59 60 61 60 59 58 56 53 51 50 48 46 45 44 43 42 41 41 41 41 42 44 43 44 44 45 46 48 49 50 50 50
42 44 46 48 50 52 53 55 56 58 58 59 59 59 57 55 53 51 49 46 45 43 41 40 40 38 37 37 37 37 38 39 40 42 41 42 42 42 44 46 48 50 51
44 46 47 49 51 52 54 56 57 58 58 57 56 54 53 51 48 46 45 42 39 37 36 35 36 37 37 37 37 37 37 38 40 40 40 40 42 41 43 44 46 47 49
44 46 48 49 51 53 54 56 56 56 56 54 52 51 49 47 44 42 38 36 35 35 36 36 37 37 37 37 37 37 37 38 38 39 39 38 39 40 42 42 44 47 47
45 47 48 50 51 53 54 54 54 53 51 50 48 47 45 42 38 35 34 35 36 38 38 39 39 39 39 38 36 36 36 36 35 35 36 36 38 38 38 38 40 43 45
45 47 49 50 51 53 53 52 51 50 48 46 45 43 40 37 34 35 37 38 39 39 39 40 39 39 38 38 37 38 37 35 34 32 29 31 34 32 31 32 33 37 40
46 48 49 51 51 51 50 49 48 46 44 42 40 38 35 34 35 37 38 38 38 39 40 39 38 37 37 35 35 35 34 34 34 32 31 31 29 28 27 27 29 32 35
46 48 49 50 49 48 47 46 44 42 40 38 36 34 34 35 36 37 37 38 40 39 39 38 37 35 33 33 32 30 30 30 29 29 29 27 25 27 27 27 28 28 30
47 48 48 48 47 45 44 43 41 39 37 34 33 33 34 34 36 36 38 39 39 39 39 36 34 31 28 27 27 26 26 26 25 25 26 27 24 27 28 24 27 27 28
46 46 45 44 44 43 41 39 38 35 33 32 33 33 33 33 35 37 38 37 37 38 36 32 28 24 23 23 22 21 21 21 20 20 20 22 23 25 29 27 27 29 28
44 43 43 42 41 40 38 37 35 32 32 32 31 31 31 31 34 37 36 37 38 36 31 26 20 19 19 19 19 17 17 16 16 17 18 18 18 25 25 27 25 29 28
41 40 40 39 38 36 36 34 31 30 30 29 30 29 29 31 34 35 35 34 35 27 20 15 13 13 14 14 14 13 13 14 15 19 17 15 20 23 26 25 23 27 26
38 37 37 36 34 34 33 30 28 27 27 28 27 27 29 31 31 33 31 30 27 22 17 9 8 9 9 8 8 8 10 14 16 20 18 17 18 21 24 26 25 25 23
34 34 34 33 33 32 29 27 26 25 26 26 26 27 28 29 30 29 27 25 21 19 16 11 8 5 4 5 4 4 7 13 17 20 19 18 17 21 24 27 25 25 23
32 32 32 32 31 28 26 25 24 24 25 25 26 27 27 28 29 28 26 23 18 17 15 12 7 2 1 3 3 2 6 10 16 21 21 19 19 20 22 23 25 25 23
30 30 31 31 28 25 24 23 23 24 25 26 26 27 28 28 29 28 25 21 17 15 13 12 7 2 1 5 5 4 7 9 13 20 23 22 20 19 20 22 23 24 23
29 30 31 28 25 23 23 22 22 24 24 25 26 26 27 27 28 27 24 19 15 12 11 11 7 3 2 6 7 7 9 12 14 18 21 20 18 17 19 20 21 23 24
29 30 28 25 22 21 21 21 21 22 24 25 25 25 27 28 27 25 22 16 13 11 10 9 8 4 2 5 10 10 11 11 14 15 17 17 17 17 17 19 21 22 24
28 27 25 22 20 21 20 20 21 23 23 23 23 24 26 27 25 24 22 16 12 11 10 8 8 4 2 3 9 13 14 14 15 15 15 15 16 18 18 19 20 22 25
26 26 24 20 19 19 18 19 21 22 22 21 22 23 24 26 25 24 21 18 15 11 10 9 8 6 3 4 7 11 14 17 17 16 16 17 18 18 18 19 21 23 24
24 23 22 18 18 18 17 18 20 21 20 20 20 22 25 25 24 24 22 19 16 14 12 10 7 5 3 1 5 8 11 14 17 17 18 18 18 17 17 18 21 24 25
23 21 19 17 17 16 17 18 19 19 18 20 20 21 23 23 24 24 22 19 16 15 14 12 8 6 3 0 4 8 10 12 14 17 18 17 17 16 16 18 21 23 24
20 20 19 16 15 16 17 17 18 17 17 19 20 21 22 22 22 24 23 20 18 16 15 14 11 6 3 2 5 8 11 13 14 15 16 17 16 16 17 17 20 21 23
19 19 18 16 15 15 16 16 17 16 16 18 19 20 21 22 22 23 22 19 19 19 18 17 14 10 4 2 5 9 12 14 15 14 14 15 16 16 17 18 20 21 22
17 18 16 15 15 14 15 16 16 15 16 17 19 19 19 22 23 22 22 19 19 19 19 19 18 16 12 6 4 9 12 15 15 14 12 13 14 16 16 17 19 20 21
16 17 15 14 14 14 14 15 15 14 15 17 18 17 20 22 22 21 21 21 20 19 19 19 19 19 18 13 9 11 13 15 15 14 13 13 15 16 17 18 20 20 21
Wind_Direction
299 300 301 302 303 303 304 304 305 305 305 304 304 303 302 301 300 298 296 294 291 288 286 284 281 279 277 274 272 270 268 267 268 267 263 260 257 255 252 250 246 243 239
301 302 303 303 304 305 305 305 306 306 306 305 304 304 303 302 300 298 296 295 292 289 287 284 281 279 277 274 271 269 268 267 268 267 265 261 258 256 252 249 244 241 238
303 303 304 305 306 306 307 307 307 307 307 306 305 304 303 302 300 298 297 295 292 290 288 285 283 280 277 275 271 269 270 270 269 266 265 262 259 256 254 250 243 239 236
305 305 306 307 307 308 308 308 309 308 308 307 306 305 304 303 301 299 297 294 292 291 290 287 285 282 278 274 271 270 271 271 268 266 264 261 259 256 253 250 243 236 233
307 307 307 308 309 309 310 310 309 309 309 308 307 307 306 304 302 300 298 296 295 292 290 287 285 283 278 274 271 270 272 271 267 265 262 260 260 254 252 247 238 231 228
308 308 309 310 310 310 310 311 311 311 311 310 309 308 307 305 302 301 300 298 297 294 292 290 285 282 278 274 271 272 268 266 263 260 260 259 257 252 246 237 227 223 221
309 310 310 311 310 311 311 312 312 312 312 312 311 310 308 306 305 303 302 300 299 297 295 290 287 282 280 273 270 272 268 266 260 258 256 256 254 238 231 223 219 216 215
311 311 312 312 312 312 312 313 313 313 313 313 313 312 310 310 308 307 305 303 301 299 298 294 290 283 275 273 269 268 267 263 258 255 250 247 244 228 223 220 214 210 209
312 313 313 313 313 313 314 314 314 314 314 314 315 314 313 312 312 311 309 307 304 300 299 296 290 281 272 269 266 266 265 259 255 250 249 240 233 219 212 211 205 206 200
313 314 315 315 315 315 315 315 316 315 315 316 316 317 316 316 316 316 315 311 309 306 302 296 289 276 269 266 264 265 260 255 247 247 231 217 215 217 206 205 199 197 195
313 314 314 316 316 316 316 316 316 315 316 317 318 319 319 320 322 322 321 318 315 309 302 295 283 271 269 265 262 259 252 244 233 223 207 208 205 195 194 193 197 194 193
314 315 316 317 318 317 318 318 317 318 319 320 321 323 324 324 326 328 327 328 333 330 319 299 281 271 270 263 258 248 238 232 220 198 194 193 187 187 188 188 183 184 190
316 317 319 320 320 320 320 319 320 321 322 324 325 326 327 329 330 333 333 336 341 347 349 327 297 281 270 256 243 244 236 207 194 190 192 185 183 187 187 186 186 185 185
318 320 322 322 322 323 322 322 324 324 325 326 327 328 329 332 334 336 337 339 343 351 356 348 329 301 271 222 218 221 210 200 195 192 190 189 185 184 183 186 187 189 191
322 323 324 324 324 324 325 326 326 326 328 329 330 330 332 333 336 336 337 340 342 346 353 354 348 334 247 189 178 184 197 195 196 195 189 186 182 178 181 185 187 191 194
324 326 327 327 326 326 328 328 330 331 332 332 333 332 333 334 337 339 338 335 337 342 351 355 348 320 222 182 167 109 140 162 163 172 177 177 177 179 182 185 190 191 192
326 328 329 329 329 330 331 332 332 335 337 337 337 338 339 339 338 340 338 337 339 341 349 355 355 335 245 202 188 173 152 142 150 162 169 177 180 183 186 189 190 193 194
329 330 331 331 331 332 333 335 337 338 337 339 342 342 345 345 347 349 347 342 342 346 347 353 360 344 274 209 197 186 180 171 168 168 174 182 187 188 189 190 192 193 193
332 333 334 333 334 335 336 338 341 342 343 346 349 351 354 356 357 359 359 357 350 350 350 349 352 338 307 212 200 200 195 188 184 186 190 193 193 194 193 193 194 195 194
334 336 337 336 338 339 340 342 345 347 350 353 356 358 1 3 5 4 6 8 5 358 355 352 351 351 317 235 212 208 207 206 203 204 204 200 195 193 195 198 199 197 195
336 338 338 339 340 342 343 346 348 351 355 357 359 2 6 7 7 7 8 10 11 10 5 359 354 350 352 234 202 199 202 204 204 201 194 189 189 192 196 197 194 195 195
338 340 340 341 341 344 346 348 352 355 359 1 3 6 7 8 10 10 11 13 13 15 14 10 359 355 341 220 183 183 180 179 180 182 183 187 189 191 193 192 191 192 195
339 341 342 343 343 345 348 351 354 357 0 3 5 6 6 6 8 10 12 17 18 16 13 8 2 350 336 237 195 187 185 180 178 180 185 187 189 191 192 191 190 191 192
339 343 345 346 344 346 350 352 354 357 1 2 3 6 10 12 11 11 15 21 22 20 18 17 20 18 4 258 200 192 187 186 184 185 188 189 192 193 194 193 190 190 191
340 344 346 347 348 348 350 354 358 1 4 6 9 12 15 14 14 17 21 24 25 27 29 33 36 37 41 56 140 168 174 179 180 180 183 188 193 190 186 183 183 184 182
342 345 348 349 353 354 353 355 360 3 7 10 13 18 17 15 17 23 27 31 32 32 34 39 41 43 48 59 87 125 148 161 167 167 160 157 160 162 163 163 165 167 171